"TOA5","AWS1","CR1000","7964","CR1000.Std.14","CPU:AWS1_114.CR1","64363","TBL110"
"TIMESTAMP","RECORD","Wind_spd_WVc(1)","Wind_spd_WVc(2)","Air_Temp_Avg","Humidity_Avg","SW_upper_Wm2_Avg","Rain_Tot","Press_Avg","Issui_Tot","Depth_cm","SR50A_Raw","Quality","Ground_Temp_Avg(1)","Ground_Temp_Avg(2)","SW_lower_Wm2_Avg","Albedo_Avg","SWC_per(1)","SWC_per(2)","Period(1)","Period(2)"
"TS","RN","","","","","","","","","","","","","","","","","","",""
"","","WVc","WVc","Avg","Avg","Avg","Tot","Avg","Tot","Smp","Smp","Smp","Avg","Avg","Avg","Avg","Smp","Smp","Smp","Smp"
"2015-12-08 00:00:00",212605,0.312,180.6,-5.424,96.2,0,0,872.1428,0,9.7,3.114,170,3.339,4.364,0.6067408,0,51.66,59.56,33.7,35.58
"2015-12-08 00:10:00",212606,0.102,222.4,-5.252,96.3,0,0,872.1407,0,9.83,3.11,170,3.316,4.355,1.046628,0,51.71,59.61,33.72,35.59
"2015-12-08 00:20:00",212607,0.085,217.1,-5.379,95,0,0,872.1197,0,9.7,3.114,170,3.314,4.356,1.069381,0,51.66,59.61,33.7,35.59
"2015-12-08 00:30:00",212608,0.081,255.8,-4.973,97,0,0,872.1428,0,9.75,3.109,169,3.302,4.359,1.702667,0,51.66,59.61,33.7,35.59
"2015-12-08 00:40:00",212609,0.012,288,-5.092,95.1,0,0,872.1386,0,9.78,3.114,170,3.255,4.358,1.179352,0,51.66,59.61,33.7,35.59
"2015-12-08 00:50:00",212610,0,0,-5.078,96.7,0,0,872.1239,0,9.43,3.115,170,3.236,4.372,1.380335,0,51.66,59.61,33.7,35.59
"2015-12-08 01:00:00",212611,0.02,287.9,-5.073,96.1,0,0,872.1007,0,9.7,3.109,170,3.23,4.387,1.198313,0,51.66,59.61,33.7,35.59
"2015-12-08 01:10:00",212612,0.02,287.9,-4.544,96.3,0,0,872.1428,0,9.46,3.115,169,3.23,4.396,1.695082,0,51.66,59.61,33.7,35.59
"2015-12-08 01:20:00",212613,0.31,190.4,-5.135,95.6,0,0,872.0037,0,9.68,3.111,170,3.23,4.394,0.9328641,0,51.66,59.61,33.7,35.59
"2015-12-08 01:30:00",212614,0.151,230.7,-4.493,97.6,0,0,872.048,0,9.18,3.112,169,3.23,4.397,1.550981,0,51.66,59.56,33.7,35.58
"2015-12-08 01:40:00",212615,0,0,-4.43,95.7,0,0,872.1428,0,9.38,3.113,170,3.23,4.398,1.422049,0,51.66,59.61,33.7,35.59
"2015-12-08 01:50:00",212616,0.06,180.9,-4.998,94.3,0,0,872.1428,0,9.58,3.116,170,3.231,4.398,1.065589,0,51.66,59.61,33.7,35.59
"2015-12-08 02:00:00",212617,0.087,201.3,-5.361,95.1,0,0,872.1386,0,9.53,3.113,168,3.23,4.398,0.8418529,0,51.66,59.56,33.7,35.58
"2015-12-08 02:10:00",212618,0,0,-4.964,95.4,0,0,872.0565,0,9.53,3.113,170,3.23,4.398,1.372751,0,51.66,59.56,33.7,35.58
"2015-12-08 02:20:00",212619,0,0,-4.907,95,0,0,872.126,0,9.41,3.114,170,3.235,4.398,1.425841,0,51.66,59.56,33.7,35.58
"2015-12-08 02:30:00",212620,0,0,-5.003,94.5,0,0,872.1428,0,9.23,3.117,169,3.243,4.398,1.361375,0,51.66,59.56,33.7,35.58
"2015-12-08 02:40:00",212621,0.104,186.7,-5.324,94.4,0,0,872.1428,0,9.51,3.117,170,3.247,4.398,1.232442,0,51.66,59.56,33.7,35.58
"2015-12-08 02:50:00",212622,0.332,185.2,-5.55,93.5,0,0,872.1386,0,9.51,3.116,170,3.235,4.398,0.8759821,0,51.66,59.56,33.7,35.58
"2015-12-08 03:00:00",212623,0.15,209.4,-5.359,92.9,0,0,872.0585,0,9.58,3.115,169,3.245,4.398,0.9442405,0,51.66,59.56,33.7,35.58
"2015-12-08 03:10:00",212624,0.229,193.4,-5.422,93.4,0,0,871.9279,0,9.36,3.117,191,3.252,4.4,0.9821618,0,51.66,59.56,33.7,35.58
"2015-12-08 03:20:00",212625,0,0,-4.969,95.7,0,0,872.1197,0,9.01,3.118,170,3.271,4.398,1.577526,0,51.66,59.56,33.7,35.58
"2015-12-08 03:30:00",212626,0.397,197.6,-5.511,93.5,0,0,871.9363,0,9.73,3.114,169,3.272,4.398,0.902527,0,51.66,59.56,33.7,35.58
"2015-12-08 03:40:00",212627,0.036,215.9,-5.049,97,0,0,872.0037,0,9.16,3.116,169,3.271,4.401,1.679914,0,51.66,59.56,33.7,35.58
"2015-12-08 03:50:00",212628,0.105,173,-5.398,94,0,0,871.9258,0,9.51,3.118,178,3.272,4.402,1.061797,0,51.66,59.56,33.7,35.58
"2015-12-08 04:00:00",212629,0.106,195.8,-5.55,95,0,0,872.0459,0,9.48,3.118,169,3.273,4.4,1.073173,0,51.66,59.56,33.7,35.58
"2015-12-08 04:10:00",212630,0,0,-5.769,93.9,0,0,872.0607,0,9.28,3.12,170,3.273,4.406,0.8380608,0,51.6,59.56,33.69,35.58
"2015-12-08 04:20:00",212631,0.226,203.5,-6.034,93,0,0,871.9321,0,9.36,3.122,170,3.282,4.428,0.7205048,0,51.66,59.56,33.7,35.58
"2015-12-08 04:30:00",212632,0.262,203.6,-6.06,94.2,0,0,871.9005,0,9.46,3.121,170,3.31,4.437,0.9518247,0,51.66,59.56,33.7,35.58
"2015-12-08 04:40:00",212633,0.22,203.7,-6.028,94.6,0,0,871.9785,0,9.51,3.118,173,3.299,4.41,1.031459,0,51.66,59.56,33.7,35.58
"2015-12-08 04:50:00",212634,0.44,183.4,-5.868,94.1,0,0,871.951,0,9.34,3.122,174,3.3,4.423,0.8683978,0,51.66,59.56,33.7,35.58
"2015-12-08 05:00:00",212635,0.26,184.9,-6.052,92.3,0,0,871.8899,0,9.48,3.118,170,3.307,4.429,0.4474714,0,51.6,59.56,33.69,35.58
"2015-12-08 05:10:00",212636,0.063,209.5,-5.488,93.2,0,0,871.8899,0,9.18,3.119,169,3.314,4.403,1.164184,0,51.66,59.56,33.7,35.58
"2015-12-08 05:20:00",212637,0.137,286.6,-5.15,95,0,0,871.9005,0,9.48,3.114,170,3.296,4.365,1.805077,0,51.6,59.56,33.69,35.58
"2015-12-08 05:30:00",212638,0,0,-5.723,92.8,0,0,871.9047,0,9.23,3.122,183,3.309,4.384,0.8987462,0,51.6,59.56,33.69,35.58
"2015-12-08 05:40:00",212639,0,0,-5.748,93.8,0,0,872.0311,0,9.18,3.123,179,3.322,4.367,1.274201,0,51.6,59.56,33.69,35.58
"2015-12-08 05:50:00",212640,0,0,-5.842,93.9,0,0,872.1428,0,9.23,3.12,169,3.326,4.34,1.285603,0,51.66,59.56,33.7,35.58
"2015-12-08 06:00:00",212641,0,0,-5.869,93.9,0,0,872.1471,0,9.45,3.117,170,3.314,4.339,1.092201,0,51.6,59.56,33.69,35.58
"2015-12-08 06:10:00",212642,0.024,288.5,-5.546,93.6,0,0,872.1682,0,9.35,3.12,170,3.327,4.34,1.460056,0,51.66,59.56,33.7,35.58
"2015-12-08 06:20:00",212643,0.309,205.6,-5.864,93.3,0,0,872.1619,0,9.48,3.119,174,3.321,4.308,0.967021,0,51.66,59.56,33.7,35.58
"2015-12-08 06:30:00",212644,0.268,186.8,-5.435,94.8,0,0,872.3474,0,9.18,3.122,171,3.308,4.303,1.251429,0,51.66,59.56,33.7,35.58
"2015-12-08 06:40:00",212645,0.101,189.5,-5.881,93,0,0,872.3958,0,9.36,3.12,170,3.305,4.305,0.8456673,0,51.6,59.56,33.69,35.58
"2015-12-08 06:50:00",212646,0.233,205.7,-5.454,93.9,0,0,872.4042,0,9.35,3.117,174,3.306,4.314,2.480105,0,51.6,59.5,33.69,35.56
"2015-12-08 07:00:00",212647,0.081,220.1,-5.238,92.6,0.1691209,0,872.4,0,8.74,3.125,170,3.319,4.305,4.084204,5.649,51.6,59.5,33.69,35.56
"2015-12-08 07:10:00",212648,0.437,188.8,-5.994,92,1.545712,0,872.4,0,9.33,3.121,178,3.314,4.295,5.111972,4.369,51.6,59.56,33.69,35.58
"2015-12-08 07:20:00",212649,0.132,249.6,-5.378,93.9,4.83383,0,872.4843,0,9.37,3.115,191,3.302,4.304,7.37222,1.569,51.6,59.5,33.69,35.56
"2015-12-08 07:30:00",212650,0.001,271.8,-5.056,92.1,7.213406,0,872.6465,0,9.11,3.122,190,3.303,4.328,9.02949,1.255,51.6,59.5,33.69,35.56
"2015-12-08 07:40:00",212651,0.082,205,-5.997,92.3,10.35974,0,872.6486,0,9.36,3.119,174,3.297,4.297,10.89132,1.069,51.6,59.56,33.69,35.58
"2015-12-08 07:50:00",212652,0.039,207.3,-5.404,93.4,30.35907,0,872.6634,0,9.36,3.118,190,3.299,4.307,30.51955,1.022,51.6,59.5,33.69,35.56
"2015-12-08 08:00:00",212653,0.041,142.4,-5.47,93.5,31.88907,0,872.714,0,9.21,3.118,173,3.296,4.371,40.25795,1.262,51.66,59.5,33.7,35.56
"2015-12-08 08:10:00",212654,0.036,139.8,-4.744,94.1,34.75988,0,872.9016,0,9.11,3.116,179,3.267,4.372,45.27084,1.302,51.6,59.5,33.69,35.56
"2015-12-08 08:20:00",212655,0.197,144.7,-4.753,90,78.07755,0,872.9016,0,9.43,3.112,190,3.232,4.399,50.56444,0.76,51.6,59.5,33.69,35.56
"2015-12-08 08:30:00",212656,0.228,152.2,-4.217,86.2,42.28341,0,872.9016,0,9.13,3.11,177,3.231,4.389,56.44215,1.343,51.6,59.5,33.69,35.56
"2015-12-08 08:40:00",212657,0.093,176.1,-3.375,87.6,53.90926,0,872.9016,0,9.16,3.106,170,3.23,4.359,61.81937,1.23,51.6,59.5,33.69,35.56
"2015-12-08 08:50:00",212658,0.414,320.8,-3.132,85.6,60.80376,0,872.9838,0,9.26,3.105,178,3.228,4.356,62.35785,1.093,51.6,59.5,33.69,35.56
"2015-12-08 09:00:00",212659,0.073,94.6,-2.236,83.5,53.53563,0,873.1545,0,9.37,3.096,173,3.202,4.32,69.94591,1.362,51.6,59.5,33.69,35.56
"2015-12-08 09:10:00",212660,0.045,174.2,-1.614,81.9,51.32136,0,873.1482,0,9.12,3.097,174,3.251,4.319,62.76361,1.236,51.6,59.5,33.69,35.56
"2015-12-08 09:20:00",212661,0.051,148.5,-1.301,80.3,59.93457,0,873.1545,0,9.23,3.094,170,3.298,4.354,75.7858,1.282,51.6,59.5,33.69,35.56
"2015-12-08 09:30:00",212662,0.06,281.3,-0.883,63.88,52.60744,0,873.1545,0,8.93,3.094,195,3.275,4.361,67.95883,1.302,51.6,59.5,33.69,35.56
"2015-12-08 09:40:00",212663,0.088,304.4,-0.449,57.17,60.19808,0,873.1545,0,8.96,3.092,178,3.275,4.394,77.29128,1.341,51.6,59.5,33.69,35.56
"2015-12-08 09:50:00",212664,0.405,311.5,-0.203,55.67,125.4893,0,873.1438,0,8.79,3.092,174,3.278,4.4,75.3345,0.803,51.66,59.5,33.7,35.56
"2015-12-08 10:00:00",212665,0.371,311.8,0.089,54.25,56.34385,0,872.9448,0,9.46,3.084,182,3.296,4.382,80.2741,1.444,51.6,59.5,33.69,35.56
"2015-12-08 10:10:00",212666,0.74,308.1,-0.174,64.5,53.32977,0,872.856,0,9.23,3.092,173,3.268,4.357,91.60585,1.726,51.6,59.5,33.69,35.56
"2015-12-08 10:20:00",212667,0.488,320.4,-0.985,81.4,68.0041,0,872.8233,0,9.29,3.093,173,3.258,4.337,98.2533,1.512,51.6,59.5,33.69,35.56
"2015-12-08 10:30:00",212668,0.47,321.1,-1.026,83.6,81.66348,0,872.9682,0,9.37,3.092,186,3.231,4.322,115.9779,1.486,51.6,59.44,33.69,35.55
"2015-12-08 10:40:00",212669,0.57,315.8,-0.767,78.57,138.183,0,873.0213,0,9.68,3.087,186,3.232,4.311,125.6492,1.096,51.6,59.44,33.69,35.55
"2015-12-08 10:50:00",212670,0.363,312.1,-0.343,73.06,197.4238,0,872.8502,0,8.79,3.092,177,3.23,4.337,139.1547,0.826,51.66,59.44,33.7,35.55
"2015-12-08 11:00:00",212671,0.305,315.7,0.31,63.53,84.47901,0,872.8079,0,8.9,3.088,173,3.223,4.353,176.7101,2.315,51.66,59.5,33.7,35.56
"2015-12-08 11:10:00",212672,0.314,312.8,0.973,53.69,125.419,0,872.8037,0,8.91,3.083,181,3.189,4.337,212.6775,1.863,51.6,59.5,33.69,35.56
"2015-12-08 11:20:00",212673,1.074,301.7,1.449,43.53,266.6893,0,872.6962,0,8.82,3.082,173,3.187,4.311,211.3197,0.827,51.6,59.44,33.69,35.55
"2015-12-08 11:30:00",212674,0.852,317.1,1.945,39.49,550.7004,0,872.5287,0,8.64,3.082,177,3.221,4.381,208.7268,0.383,51.6,59.5,33.69,35.56
"2015-12-08 11:40:00",212675,0.658,295.6,1.988,42.36,164.2964,0,872.4709,0,8.16,3.087,170,3.217,4.374,207.8944,1.36,51.6,59.5,33.69,35.56
"2015-12-08 11:50:00",212676,0.549,304.5,1.772,50.02,59.60571,0,872.4197,0,8.91,3.081,173,3.195,4.32,210.4356,3.688,51.66,59.5,33.7,35.56
"2015-12-08 12:00:00",212677,0.584,294.9,1.889,47.91,101.5687,0,872.22,0,8.84,3.081,173,3.16,4.297,211.0545,2.436,51.55,59.44,33.68,35.55
"2015-12-08 12:10:00",212678,0.555,311.6,2.036,47,468.031,0,872.1424,0,8.76,3.08,170,3.089,4.245,200.3665,0.433,51.6,59.44,33.69,35.55
"2015-12-08 12:20:00",212679,0.599,308.2,2.243,44.38,507.077,0,871.9915,0,8.62,3.082,169,3.098,4.192,185.0696,0.37,51.55,59.44,33.68,35.55
"2015-12-08 12:30:00",212680,0.458,328.2,2.202,44.21,284.2585,0,871.8664,0,8.34,3.083,170,3.112,4.17,160.9334,0.578,51.6,59.44,33.69,35.55
"2015-12-08 12:40:00",212681,0.512,329.8,2.125,46.37,247.8587,0,871.8515,0,8.62,3.084,180,3.048,4.151,135.0865,0.564,51.55,59.44,33.68,35.55
"2015-12-08 12:50:00",212682,0.495,289.3,1.816,46.9,354.7354,0,871.842,0,8.66,3.081,170,3.013,4.153,99.742,0.302,51.55,59.44,33.68,35.55
"2015-12-08 13:00:00",212683,0.424,296.1,1.877,44.54,147.6025,0,871.8378,0,9.3,3.077,177,3.003,4.164,86.75919,0.799,51.55,59.44,33.68,35.55
"2015-12-08 13:10:00",212684,0.557,304.2,1.734,47.95,92.57944,0,871.8553,0,9.49,3.076,179,3.046,4.177,91.09351,1.053,51.55,59.44,33.68,35.55
"2015-12-08 13:20:00",212685,0.475,289.1,1.621,52.07,158.507,0,871.9092,0,8.67,3.085,177,3.071,4.194,87.17506,0.598,51.6,59.44,33.69,35.55
"2015-12-08 13:30:00",212686,0.437,298,1.711,48.8,123.7526,0,872.018,0,9.18,3.078,178,3.082,4.206,70.86366,0.635,51.6,59.44,33.69,35.55
"2015-12-08 13:40:00",212687,0.481,295.9,1.696,46.51,100.0803,0,872.0373,0,9.57,3.076,189,3.089,4.234,49.92828,0.514,51.6,59.44,33.69,35.55
"2015-12-08 13:50:00",212688,0.455,328,1.571,46.8,53.72406,0,872.0794,0,9.43,3.075,189,3.12,4.295,36.72688,0.746,51.6,59.44,33.69,35.55
"2015-12-08 14:00:00",212689,0.254,282.5,1.895,44.87,85.74122,0,872.092,0,8.87,3.082,189,3.166,4.287,32.56374,0.454,51.6,59.44,33.69,35.55
"2015-12-08 14:10:00",212690,0.531,353.7,1.84,42.86,72.77592,0,872.0754,0,9.27,3.076,189,3.118,4.267,31.40089,0.554,51.55,59.44,33.68,35.55
"2015-12-08 14:20:00",212691,0.455,16.06,2.211,40.49,38.26196,0,872.1788,0,9.12,3.076,191,3.035,4.209,28.00794,0.739,51.6,59.44,33.69,35.55
"2015-12-08 14:30:00",212692,0.363,62.37,2.336,38.52,30.53314,0,872.2014,0,9.1,3.075,189,3.052,4.179,24.64679,0.807,51.6,59.44,33.69,35.55
"2015-12-08 14:40:00",212693,0.225,351,2.098,40.48,28.48085,0,872.207,0,8.72,3.083,189,3.079,4.204,20.94717,0.735,51.6,59.44,33.69,35.55
"2015-12-08 14:50:00",212694,0.442,308.9,1.703,44.72,26.95721,0,872.2653,0,8.97,3.082,190,3.091,4.232,19.17843,0.711,51.6,59.44,33.69,35.55
"2015-12-08 15:00:00",212695,0.26,267,1.308,46.17,24.90997,0,872.3583,0,8.89,3.084,189,3.097,4.268,17.62125,0.707,51.6,59.44,33.69,35.55
"2015-12-08 15:10:00",212696,0.384,260.7,1.187,45.36,23.56987,0,872.4426,0,9.01,3.083,190,3.131,4.295,16.59058,0.704,51.55,59.44,33.68,35.55
"2015-12-08 15:20:00",212697,0.312,251.7,1.099,46.4,22.17072,0,872.4615,0,8.83,3.086,181,3.154,4.291,15.70006,0.708,51.6,59.44,33.69,35.55
"2015-12-08 15:30:00",212698,0.374,229.6,1.014,47.72,23.23584,0,872.5458,0,8.75,3.087,189,3.176,4.244,16.20408,0.697,51.55,59.44,33.68,35.55
"2015-12-08 15:40:00",212699,0.192,236.5,1.048,46.15,24.87477,0,872.7079,0,8.91,3.085,176,3.178,4.221,16.7763,0.674,51.55,59.44,33.68,35.55
"2015-12-08 15:50:00",212700,0.123,227.8,0.934,46.99,18.79926,0,872.6679,0,9.04,3.085,180,3.171,4.231,13.07064,0.698,51.6,59.38,33.69,35.54
"2015-12-08 16:00:00",212701,0.031,240.2,0.989,42.37,13.31351,0,872.627,0,8.91,3.085,185,3.173,4.236,10.00184,0.752,51.55,59.44,33.68,35.55
"2015-12-08 16:10:00",212702,0.03,241,0.97,42.24,9.796339,0,872.7507,0,8.69,3.088,189,3.153,4.233,7.944563,0.813,51.6,59.44,33.69,35.55
"2015-12-08 16:20:00",212703,0.025,258.9,0.741,41.54,6.223392,0,872.7515,0,9.11,3.084,177,3.16,4.235,5.682126,0.92,51.55,59.38,33.68,35.54
"2015-12-08 16:30:00",212704,0,0,0.622,41.96,2.2567,0,872.8588,0,8.62,3.092,189,3.184,4.261,3.294165,2.068,51.6,59.44,33.69,35.55
"2015-12-08 16:40:00",212705,0.004,30.07,-0.289,55.38,0,0,872.8333,0,8.83,3.095,189,3.147,4.299,0.6975077,0,51.55,59.38,33.68,35.54
"2015-12-08 16:50:00",212706,0.133,216.2,-0.447,52.01,0,0,873.0526,0,8.58,3.099,190,3.17,4.303,0.04928079,0,51.6,59.38,33.69,35.54
"2015-12-08 17:00:00",212707,0.307,180.5,-1.153,61.81,0,0,873.0598,0,8.73,3.099,187,3.183,4.249,0,0,51.55,59.38,33.68,35.54
"2015-12-08 17:10:00",212708,0.079,159.5,-1.32,63.5,0,0,873.1068,0,8.88,3.099,189,3.184,4.229,0,0,51.6,59.38,33.69,35.54
"2015-12-08 17:20:00",212709,0.239,60.58,-0.872,57.66,0,0,873.2903,0,9.31,3.087,189,3.169,4.224,0.2426135,0,51.55,59.38,33.68,35.54
"2015-12-08 17:30:00",212710,0.282,310.9,0.387,50.08,0,0,873.3177,0,8.37,3.094,189,3.113,4.231,0.9477091,0,51.55,59.38,33.68,35.54
"2015-12-08 17:40:00",212711,0.225,173.3,0.298,49.93,0,0,873.3304,0,8.37,3.095,189,3.121,4.229,0.1137251,0,51.55,59.38,33.68,35.54
"2015-12-08 17:50:00",212712,0.51,346.9,0.61,46.39,0,0,873.499,0,8.9,3.086,189,3.111,4.226,0.4852271,0,51.49,59.38,33.66,35.54
"2015-12-08 18:00:00",212713,0.63,334.6,0.916,44.49,0,0,873.56,0,8.7,3.088,187,3.127,4.223,0.07202589,0,51.55,59.38,33.68,35.54
"2015-12-08 18:10:00",212714,0.548,337.3,0.952,41.1,0,0,873.5917,0,8.91,3.085,189,3.161,4.223,0,0,51.55,59.38,33.68,35.54
"2015-12-08 18:20:00",212715,0.372,251.9,0.539,44.57,0,0,873.8129,0,8.41,3.097,187,3.119,4.223,0,0,51.55,59.38,33.68,35.54
"2015-12-08 18:30:00",212716,0.039,95.5,-0.289,49.51,0,0,874.0215,0,8.4,3.099,190,3.106,4.23,0,0,51.55,59.38,33.68,35.54
"2015-12-08 18:40:00",212717,0.02,84.6,-0.995,57.76,0,0,874.0721,0,8.8,3.098,189,3.112,4.27,0,0,51.55,59.38,33.68,35.54
"2015-12-08 18:50:00",212718,0.11,305.5,-0.661,52.64,0,0,874.169,0,8.43,3.097,190,3.129,4.279,0.007582049,0,51.55,59.38,33.68,35.54
"2015-12-08 19:00:00",212719,0.046,235.9,-0.564,55.28,0,0,874.325,0,8.62,3.1,189,3.14,4.276,0.06823833,0,51.55,59.38,33.68,35.54
"2015-12-08 19:10:00",212720,0.066,1.183,-0.802,53.64,0,0,874.3565,0,8.88,3.094,173,3.147,4.286,0.03411836,0,51.55,59.38,33.68,35.54
"2015-12-08 19:20:00",212721,0.315,331,-0.158,51.17,0,0,874.3523,0,8.49,3.096,192,3.142,4.282,0.3184353,0,51.55,59.38,33.68,35.54
"2015-12-08 19:30:00",212722,0.48,347,-0.23,52.68,0,0,874.5061,0,8.7,3.095,190,3.123,4.276,0.07581814,0,51.55,59.38,33.68,35.54
"2015-12-08 19:40:00",212723,0.576,30.42,-0.41,55.34,0,0,874.5714,0,8.32,3.1,173,3.153,4.29,0,0,51.55,59.38,33.68,35.54
"2015-12-08 19:50:00",212724,0.607,68.2,-0.74,60.26,0,0,874.5556,0,8.86,3.095,186,3.174,4.3,0,0,51.55,59.38,33.68,35.54
"2015-12-08 20:00:00",212725,0.301,81.6,-0.614,62.1,0,0,874.6008,0,8.56,3.099,190,3.182,4.307,0,0,51.55,59.38,33.68,35.54
"2015-12-08 20:10:00",212726,0.218,78.46,-0.94,65.57,0,0,874.6036,0,8.88,3.097,190,3.185,4.312,0,0,51.55,59.38,33.68,35.54
"2015-12-08 20:20:00",212727,0.4,313.7,-1.284,68.72,0,0,874.6663,0,8.6,3.103,189,3.192,4.336,0,0,51.55,59.38,33.68,35.54
"2015-12-08 20:30:00",212728,0.185,205.3,-2.225,72.06,0,0,874.8626,0,8.59,3.112,189,3.193,4.346,0,0,51.55,59.38,33.68,35.54
"2015-12-08 20:40:00",212729,0.111,189.3,-2.887,75.9,0,0,874.702,0,8.31,3.113,185,3.197,4.333,0,0,51.55,59.38,33.68,35.54
"2015-12-08 20:50:00",212730,0.026,261.5,-2.4,77.03,0,0,874.8672,0,8.53,3.108,189,3.209,4.292,0,0,51.55,59.38,33.68,35.54
"2015-12-08 21:00:00",212731,0.042,20.56,-3.445,78.85,0,0,875.0784,0,8.64,3.115,185,3.235,4.29,0,0,51.55,59.38,33.68,35.54
"2015-12-08 21:10:00",212732,0.008,20.57,-3.902,81.4,0,0,874.9816,0,8.74,3.116,190,3.214,4.254,0,0,51.55,59.32,33.68,35.52
"2015-12-08 21:20:00",212733,0.252,201.6,-3.742,82,0,0,875.1647,0,8.52,3.113,189,3.191,4.25,0,0,51.55,59.32,33.68,35.52
"2015-12-08 21:30:00",212734,0.098,213.6,-3.61,80.9,0,0,875.1664,0,8.62,3.114,172,3.191,4.258,0,0,51.55,59.38,33.68,35.54
"2015-12-08 21:40:00",212735,0.178,185.8,-3.823,82.5,0,0,875.0582,0,8.81,3.114,185,3.212,4.267,0,0,51.55,59.38,33.68,35.54
"2015-12-08 21:50:00",212736,0.242,211.4,-3.363,82.4,0,0,875.0048,0,8.19,3.117,189,3.218,4.269,0.1744378,0,51.55,59.32,33.68,35.52
"2015-12-08 22:00:00",212737,0.423,172.7,-4.013,82.7,0,0,874.9503,0,8.42,3.12,186,3.229,4.269,0,0,51.49,59.32,33.66,35.52
"2015-12-08 22:10:00",212738,0.463,176.2,-4.465,85.4,0,0,874.9335,0,8.71,3.118,186,3.229,4.269,0,0,51.49,59.32,33.66,35.52
"2015-12-08 22:20:00",212739,0.388,194.4,-4.116,83.8,0,0,874.9081,0,8.51,3.119,189,3.23,4.269,0,0,51.55,59.32,33.68,35.52
"2015-12-08 22:30:00",212740,0.299,197.3,-3.949,81.4,0,0,874.9208,0,8.49,3.117,191,3.228,4.269,0,0,51.49,59.32,33.66,35.52
"2015-12-08 22:40:00",212741,0.09,215.6,-4.096,81.5,0,0,874.925,0,8.54,3.119,189,3.222,4.277,0,0,51.55,59.32,33.68,35.52
"2015-12-08 22:50:00",212742,0.22,201.6,-4.231,84.1,0,0,874.9293,0,8.61,3.117,190,3.221,4.298,0,0,51.55,59.38,33.68,35.54
"2015-12-08 23:00:00",212743,0.065,196.6,-4.01,80.5,0,0,874.9398,0,8.39,3.119,178,3.215,4.309,0,0,51.49,59.32,33.66,35.52
"2015-12-08 23:10:00",212744,0.09,196.6,-3.874,79.4,0,0,875.1316,0,8.36,3.12,186,3.22,4.314,0,0,51.49,59.32,33.66,35.52
"2015-12-08 23:20:00",212745,0.265,187.9,-4.655,81.2,0,0,875.1716,0,8.69,3.119,173,3.214,4.318,0,0,51.55,59.32,33.68,35.52
"2015-12-08 23:30:00",212746,0.368,186.3,-4.639,80.2,0,0,875.1526,0,8.69,3.12,190,3.211,4.318,0,0,51.49,59.32,33.66,35.52
"2015-12-08 23:40:00",212747,0.121,265.8,-3.867,78.68,0,0,875.3065,0,8.34,3.115,190,3.222,4.315,0.3109547,0,51.49,59.32,33.66,35.52
"2015-12-08 23:50:00",212748,0.074,127.5,-3.94,76.57,0,0,875.2623,0,9.51,3.11,186,3.214,4.317,0.04550556,0,51.49,59.32,33.66,35.52
